date,time,SUV Intensity [MED/Hr],UV Index,Daily total [MED],Since Last [MED]
14/01/2023,00:01:42,0.000,0.0,0.0,0.0
14/01/2023,00:02:43,0.000,0.0,0.0,0.0
14/01/2023,00:03:43,-0.000,0.0,0.0,0.0
14/01/2023,00:04:43,0.000,0.0,0.0,0.0
14/01/2023,00:05:43,0.000,0.0,0.0,0.0
14/01/2023,00:06:42,-0.000,0.0,0.0,0.0
14/01/2023,00:07:43,-0.001,0.0,0.0,0.0
14/01/2023,00:08:43,-0.001,0.0,0.0,0.0
14/01/2023,00:09:43,-0.001,0.0,0.0,0.0
14/01/2023,00:10:43,0.001,0.0,0.0,0.0
14/01/2023,00:11:43,0.000,0.0,0.0,0.0
14/01/2023,00:12:43,-0.000,0.0,0.0,0.0
14/01/2023,00:13:43,0.000,0.0,0.0,0.0
14/01/2023,00:14:43,0.000,0.0,0.0,0.0
14/01/2023,00:15:43,0.001,0.0,0.0,0.0
14/01/2023,00:16:43,-0.000,0.0,0.0,0.0
14/01/2023,00:17:43,-0.000,0.0,0.0,0.0
14/01/2023,00:18:43,-0.000,0.0,0.0,0.0
14/01/2023,00:19:43,-0.000,0.0,0.0,0.0
14/01/2023,00:20:43,-0.000,0.0,0.0,0.0
14/01/2023,00:21:43,-0.000,0.0,0.0,0.0
14/01/2023,00:22:43,-0.000,0.0,0.0,0.0
14/01/2023,00:23:43,-0.001,0.0,0.0,0.0
14/01/2023,00:24:43,0.000,0.0,0.0,0.0
14/01/2023,00:25:43,0.000,0.0,0.0,0.0
14/01/2023,00:26:43,-0.000,0.0,0.0,0.0
14/01/2023,00:27:43,-0.000,0.0,0.0,0.0
14/01/2023,00:28:43,0.001,0.0,0.0,0.0
14/01/2023,00:29:43,-0.000,0.0,0.0,0.0
14/01/2023,00:30:42,-0.000,0.0,0.0,0.0
14/01/2023,00:31:43,-0.000,0.0,0.0,0.0
14/01/2023,00:32:43,0.000,0.0,0.0,0.0
14/01/2023,00:33:43,-0.000,0.0,0.0,0.0
14/01/2023,00:34:43,0.000,0.0,0.0,0.0
14/01/2023,00:35:43,0.000,0.0,0.0,0.0
14/01/2023,00:36:43,0.000,0.0,0.0,0.0
14/01/2023,00:37:43,0.000,0.0,0.0,0.0
14/01/2023,00:38:43,0.000,0.0,0.0,0.0
14/01/2023,00:39:43,0.000,0.0,0.0,0.0
14/01/2023,00:40:43,0.001,0.0,0.0,0.0
14/01/2023,00:41:43,0.001,0.0,0.0,0.0
14/01/2023,00:42:44,0.000,0.0,0.0,0.0
14/01/2023,00:43:43,0.001,0.0,0.0,0.0
14/01/2023,00:44:43,0.000,0.0,0.0,0.0
14/01/2023,00:45:44,0.000,0.0,0.0,0.0
14/01/2023,00:46:43,0.000,0.0,0.0,0.0
14/01/2023,00:47:43,0.000,0.0,0.0,0.0
14/01/2023,00:48:43,0.000,0.0,0.0,0.0
14/01/2023,00:49:43,0.000,0.0,0.0,0.0
14/01/2023,00:50:43,0.000,0.0,0.0,0.0
14/01/2023,00:51:43,0.000,0.0,0.0,0.0
14/01/2023,00:52:43,-0.000,0.0,0.0,0.0
14/01/2023,00:53:43,0.000,0.0,0.0,0.0
14/01/2023,00:54:43,-0.001,0.0,0.0,0.0
14/01/2023,00:55:43,0.000,0.0,0.0,0.0
14/01/2023,00:56:42,0.001,0.0,0.0,0.0
14/01/2023,00:57:43,-0.001,0.0,0.0,0.0
14/01/2023,00:58:43,0.000,0.0,0.0,0.0
14/01/2023,00:59:43,0.000,0.0,0.0,0.0
14/01/2023,01:00:43,-0.000,0.0,0.0,0.0
14/01/2023,01:01:43,0.000,0.0,0.0,0.0
14/01/2023,01:02:43,0.001,0.0,0.0,0.0
14/01/2023,01:03:43,0.000,0.0,0.0,0.0
14/01/2023,01:04:43,-0.000,0.0,0.0,0.0
14/01/2023,01:06:12,0.001,0.0,0.0,0.0
14/01/2023,01:07:44,0.000,0.0,0.0,0.0
14/01/2023,01:08:43,0.000,0.0,0.0,0.0
14/01/2023,01:09:43,-0.001,0.0,0.0,0.0
14/01/2023,01:10:43,0.001,0.0,0.0,0.0
14/01/2023,01:11:43,0.000,0.0,0.0,0.0
14/01/2023,01:12:42,0.000,0.0,0.0,0.0
14/01/2023,01:13:42,-0.001,0.0,0.0,0.0
14/01/2023,01:14:43,0.000,0.0,0.0,0.0
14/01/2023,01:15:43,0.000,0.0,0.0,0.0
14/01/2023,01:16:43,0.000,0.0,0.0,0.0
14/01/2023,01:17:43,0.001,0.0,0.0,0.0
14/01/2023,01:18:43,0.000,0.0,0.0,0.0
14/01/2023,01:19:43,-0.000,0.0,0.0,0.0
14/01/2023,01:20:43,0.000,0.0,0.0,0.0
14/01/2023,01:21:43,0.000,0.0,0.0,0.0
14/01/2023,01:22:43,0.000,0.0,0.0,0.0
14/01/2023,01:23:43,0.000,0.0,0.0,0.0
14/01/2023,01:24:43,0.000,0.0,0.0,0.0
14/01/2023,01:25:43,-0.001,0.0,0.0,0.0
14/01/2023,01:26:43,0.001,0.0,0.0,0.0
14/01/2023,01:27:43,0.001,0.0,0.0,0.0
14/01/2023,01:28:43,0.000,0.0,0.0,0.0
14/01/2023,01:29:43,-0.001,0.0,0.0,0.0
14/01/2023,01:30:43,0.001,0.0,0.0,0.0
14/01/2023,01:31:43,0.000,0.0,0.0,0.0
14/01/2023,01:32:43,0.000,0.0,0.0,0.0
14/01/2023,01:33:43,0.001,0.0,0.0,0.0
14/01/2023,01:34:43,0.000,0.0,0.0,0.0
14/01/2023,01:35:43,0.000,0.0,0.0,0.0
14/01/2023,01:36:43,0.001,0.0,0.0,0.0
14/01/2023,01:37:43,0.001,0.0,0.0,0.0
14/01/2023,01:38:43,0.001,0.0,0.0,0.0
14/01/2023,01:39:43,0.000,0.0,0.0,0.0
14/01/2023,01:40:43,0.000,0.0,0.0,0.0
14/01/2023,01:41:43,0.000,0.0,0.0,0.0
14/01/2023,01:42:43,0.000,0.0,0.0,0.0
14/01/2023,01:43:43,0.000,0.0,0.0,0.0
14/01/2023,01:44:43,0.000,0.0,0.0,0.0
14/01/2023,01:45:42,0.000,0.0,0.0,0.0
14/01/2023,01:46:43,0.000,0.0,0.0,0.0
14/01/2023,01:47:43,0.000,0.0,0.0,0.0
14/01/2023,01:48:43,0.000,0.0,0.0,0.0
14/01/2023,01:49:43,-0.001,0.0,0.0,0.0
14/01/2023,01:50:43,-0.001,0.0,0.0,0.0
14/01/2023,01:51:43,0.001,0.0,0.0,0.0
14/01/2023,01:52:43,0.000,0.0,0.0,0.0
14/01/2023,01:53:42,0.000,0.0,0.0,0.0
14/01/2023,01:54:43,0.000,0.0,0.0,0.0
14/01/2023,01:55:43,0.001,0.0,0.0,0.0
14/01/2023,01:56:43,0.000,0.0,0.0,0.0
14/01/2023,01:57:43,0.000,0.0,0.0,0.0
14/01/2023,01:58:43,0.001,0.0,0.0,0.0
14/01/2023,01:59:43,-0.001,0.0,0.0,0.0
14/01/2023,02:00:43,0.000,0.0,0.0,0.0
14/01/2023,02:01:43,0.001,0.0,0.0,0.0
14/01/2023,02:02:43,0.000,0.0,0.0,0.0
14/01/2023,02:03:43,0.000,0.0,0.0,0.0
14/01/2023,02:04:43,0.001,0.0,0.0,0.0
14/01/2023,02:05:43,-0.001,0.0,0.0,0.0
14/01/2023,02:06:44,0.000,0.0,0.0,0.0
14/01/2023,02:07:43,0.001,0.0,0.0,0.0
14/01/2023,02:08:43,0.000,0.0,0.0,0.0
14/01/2023,02:09:43,0.000,0.0,0.0,0.0
14/01/2023,02:10:43,0.000,0.0,0.0,0.0
14/01/2023,02:11:43,0.001,0.0,0.0,0.0
14/01/2023,02:12:43,0.001,0.0,0.0,0.0
14/01/2023,02:13:43,0.000,0.0,0.0,0.0
14/01/2023,02:14:43,0.001,0.0,0.0,0.0
14/01/2023,02:15:43,-0.000,0.0,0.0,0.0
14/01/2023,02:16:43,0.000,0.0,0.0,0.0
14/01/2023,02:17:43,0.001,0.0,0.0,0.0
14/01/2023,02:18:43,0.000,0.0,0.0,0.0
14/01/2023,02:19:43,0.000,0.0,0.0,0.0
14/01/2023,02:20:43,0.000,0.0,0.0,0.0
14/01/2023,02:21:43,0.001,0.0,0.0,0.0
14/01/2023,02:22:43,0.000,0.0,0.0,0.0
14/01/2023,02:23:43,0.000,0.0,0.0,0.0
14/01/2023,02:24:43,0.000,0.0,0.0,0.0
14/01/2023,02:25:43,0.000,0.0,0.0,0.0
14/01/2023,02:26:43,0.000,0.0,0.0,0.0
14/01/2023,02:27:43,0.000,0.0,0.0,0.0
14/01/2023,02:28:43,0.000,0.0,0.0,0.0
14/01/2023,02:29:43,0.000,0.0,0.0,0.0
14/01/2023,02:30:43,-0.000,0.0,0.0,0.0
14/01/2023,02:31:43,-0.000,0.0,0.0,0.0
14/01/2023,02:32:43,0.000,0.0,0.0,0.0
14/01/2023,02:33:43,0.000,0.0,0.0,0.0
14/01/2023,02:34:43,-0.001,0.0,0.0,0.0
14/01/2023,02:35:43,0.000,0.0,0.0,0.0
14/01/2023,02:36:44,0.000,0.0,0.0,0.0
14/01/2023,02:37:43,0.000,0.0,0.0,0.0
14/01/2023,02:38:43,0.000,0.0,0.0,0.0
14/01/2023,02:39:43,-0.000,0.0,0.0,0.0
14/01/2023,02:40:43,0.000,0.0,0.0,0.0
14/01/2023,02:41:43,-0.001,0.0,0.0,0.0
14/01/2023,02:42:43,0.000,0.0,0.0,0.0
14/01/2023,02:43:43,0.000,0.0,0.0,0.0
14/01/2023,02:44:43,0.001,0.0,0.0,0.0
14/01/2023,02:45:43,0.001,0.0,0.0,0.0
14/01/2023,02:46:43,0.000,0.0,0.0,0.0
14/01/2023,02:47:43,0.000,0.0,0.0,0.0
14/01/2023,02:48:43,0.000,0.0,0.0,0.0
14/01/2023,02:49:43,0.000,0.0,0.0,0.0
14/01/2023,02:50:43,0.000,0.0,0.0,0.0
14/01/2023,02:51:43,0.000,0.0,0.0,0.0
14/01/2023,02:52:44,0.001,0.0,0.0,0.0
14/01/2023,02:53:43,0.000,0.0,0.0,0.0
14/01/2023,02:54:43,-0.000,0.0,0.0,0.0
14/01/2023,02:55:43,0.000,0.0,0.0,0.0
14/01/2023,02:56:43,0.000,0.0,0.0,0.0
14/01/2023,02:57:44,0.000,0.0,0.0,0.0
14/01/2023,02:58:46,-0.000,0.0,0.0,0.0
14/01/2023,02:59:44,0.001,0.0,0.0,0.0
14/01/2023,03:00:43,0.000,0.0,0.0,0.0
14/01/2023,03:01:44,-0.000,0.0,0.0,0.0
14/01/2023,03:02:43,0.000,0.0,0.0,0.0
14/01/2023,03:03:43,-0.000,0.0,0.0,0.0
14/01/2023,03:04:44,0.000,0.0,0.0,0.0
14/01/2023,03:05:43,0.001,0.0,0.0,0.0
14/01/2023,03:06:44,0.001,0.0,0.0,0.0
14/01/2023,03:07:43,-0.000,0.0,0.0,0.0
14/01/2023,03:08:43,0.001,0.0,0.0,0.0
14/01/2023,03:09:43,-0.000,0.0,0.0,0.0
14/01/2023,03:10:43,-0.000,0.0,0.0,0.0
14/01/2023,03:11:43,0.001,0.0,0.0,0.0
14/01/2023,03:12:43,0.001,0.0,0.0,0.0
14/01/2023,03:13:43,0.000,0.0,0.0,0.0
14/01/2023,03:14:43,-0.001,0.0,0.0,0.0
14/01/2023,03:15:44,-0.001,0.0,0.0,0.0
14/01/2023,03:16:43,0.000,0.0,0.0,0.0
14/01/2023,03:17:43,0.000,0.0,0.0,0.0
14/01/2023,03:18:43,-0.001,0.0,0.0,0.0
14/01/2023,03:19:43,-0.000,0.0,0.0,0.0
14/01/2023,03:20:43,-0.000,0.0,0.0,0.0
14/01/2023,03:21:44,-0.001,0.0,0.0,0.0
14/01/2023,03:22:43,-0.000,0.0,0.0,0.0
14/01/2023,03:23:43,-0.000,0.0,0.0,0.0
14/01/2023,03:24:43,-0.000,0.0,0.0,0.0
14/01/2023,03:25:43,-0.001,0.0,0.0,0.0
14/01/2023,03:26:43,-0.000,0.0,0.0,0.0
14/01/2023,03:27:43,-0.000,0.0,0.0,0.0
14/01/2023,03:28:43,-0.000,0.0,0.0,0.0
14/01/2023,03:29:43,-0.000,0.0,0.0,0.0
14/01/2023,03:30:44,-0.000,0.0,0.0,0.0
14/01/2023,03:31:43,-0.000,0.0,0.0,0.0
14/01/2023,03:32:43,0.001,0.0,0.0,0.0
14/01/2023,03:33:43,0.000,0.0,0.0,0.0
14/01/2023,03:34:44,-0.001,0.0,0.0,0.0
14/01/2023,03:35:43,-0.001,0.0,0.0,0.0
14/01/2023,03:36:43,0.000,0.0,0.0,0.0
14/01/2023,03:37:44,-0.001,0.0,0.0,0.0
14/01/2023,03:38:43,0.000,0.0,0.0,0.0
14/01/2023,03:39:43,-0.000,0.0,0.0,0.0
14/01/2023,03:40:44,-0.000,0.0,0.0,0.0
14/01/2023,03:41:43,-0.001,0.0,0.0,0.0
14/01/2023,03:42:43,-0.000,0.0,0.0,0.0
14/01/2023,03:43:43,-0.000,0.0,0.0,0.0
14/01/2023,03:44:43,0.000,0.0,0.0,0.0
14/01/2023,03:45:43,-0.001,0.0,0.0,0.0
14/01/2023,03:46:44,-0.001,0.0,0.0,0.0
14/01/2023,03:47:43,-0.000,0.0,0.0,0.0
14/01/2023,03:48:43,0.000,0.0,0.0,0.0
14/01/2023,03:49:43,0.000,0.0,0.0,0.0
14/01/2023,03:50:43,-0.001,0.0,0.0,0.0
14/01/2023,03:51:43,-0.001,0.0,0.0,0.0
14/01/2023,03:52:44,0.001,0.0,0.0,0.0
14/01/2023,03:53:43,-0.000,0.0,0.0,0.0
14/01/2023,03:54:43,-0.000,0.0,0.0,0.0
14/01/2023,03:55:43,0.001,0.0,0.0,0.0
14/01/2023,03:56:43,0.000,0.0,0.0,0.0
14/01/2023,03:57:43,-0.001,0.0,0.0,0.0
14/01/2023,03:58:43,-0.000,0.0,0.0,0.0
14/01/2023,03:59:43,-0.001,0.0,0.0,0.0
14/01/2023,04:00:43,-0.000,0.0,0.0,0.0
14/01/2023,04:01:44,-0.000,0.0,0.0,0.0
14/01/2023,04:02:43,-0.000,0.0,0.0,0.0
14/01/2023,04:03:44,-0.001,0.0,0.0,0.0
14/01/2023,04:04:44,-0.000,0.0,0.0,0.0
14/01/2023,04:05:44,0.001,0.0,0.0,0.0
14/01/2023,04:06:43,-0.000,0.0,0.0,0.0
14/01/2023,04:07:44,-0.000,0.0,0.0,0.0
14/01/2023,04:08:43,-0.000,0.0,0.0,0.0
14/01/2023,04:09:43,-0.000,0.0,0.0,0.0
14/01/2023,04:10:43,-0.000,0.0,0.0,0.0
14/01/2023,04:12:12,0.001,0.0,0.0,0.0
14/01/2023,04:13:43,-0.000,0.0,0.0,0.0
14/01/2023,04:14:44,0.000,0.0,0.0,0.0
14/01/2023,04:15:43,-0.000,0.0,0.0,0.0
14/01/2023,04:16:43,-0.000,0.0,0.0,0.0
14/01/2023,04:17:44,-0.001,0.0,0.0,0.0
14/01/2023,04:18:43,0.000,0.0,0.0,0.0
14/01/2023,04:19:43,-0.001,0.0,0.0,0.0
14/01/2023,04:20:44,-0.001,0.0,0.0,0.0
14/01/2023,04:21:43,0.000,0.0,0.0,0.0
14/01/2023,04:22:43,-0.001,0.0,0.0,0.0
14/01/2023,04:23:43,-0.000,0.0,0.0,0.0
14/01/2023,04:24:43,0.001,0.0,0.0,0.0
14/01/2023,04:25:43,0.001,0.0,0.0,0.0
14/01/2023,04:26:43,0.000,0.0,0.0,0.0
14/01/2023,04:27:43,-0.000,0.0,0.0,0.0
14/01/2023,04:28:44,-0.000,0.0,0.0,0.0
14/01/2023,04:29:43,-0.000,0.0,0.0,0.0
14/01/2023,04:30:43,-0.001,0.0,0.0,0.0
14/01/2023,04:31:43,-0.001,0.0,0.0,0.0
14/01/2023,04:32:43,-0.000,0.0,0.0,0.0
14/01/2023,04:33:44,-0.000,0.0,0.0,0.0
14/01/2023,04:34:43,-0.000,0.0,0.0,0.0
14/01/2023,04:35:44,0.000,0.0,0.0,0.0
14/01/2023,04:36:43,0.001,0.0,0.0,0.0
14/01/2023,04:37:43,-0.001,0.0,0.0,0.0
14/01/2023,04:38:43,0.000,0.0,0.0,0.0
14/01/2023,04:39:43,-0.000,0.0,0.0,0.0
14/01/2023,04:40:43,-0.000,0.0,0.0,0.0
14/01/2023,04:41:43,-0.000,0.0,0.0,0.0
14/01/2023,04:42:43,-0.000,0.0,0.0,0.0
14/01/2023,04:43:44,0.001,0.0,0.0,0.0
14/01/2023,04:44:44,-0.000,0.0,0.0,0.0
14/01/2023,04:45:43,-0.001,0.0,0.0,0.0
14/01/2023,04:46:44,0.001,0.0,0.0,0.0
14/01/2023,04:47:43,-0.001,0.0,0.0,0.0
14/01/2023,04:48:43,-0.000,0.0,0.0,0.0
14/01/2023,04:49:44,-0.000,0.0,0.0,0.0
14/01/2023,04:50:43,-0.001,0.0,0.0,0.0
14/01/2023,04:51:43,-0.001,0.0,0.0,0.0
14/01/2023,04:52:43,-0.001,0.0,0.0,0.0
14/01/2023,04:53:43,-0.000,0.0,0.0,0.0
14/01/2023,04:54:43,-0.001,0.0,0.0,0.0
14/01/2023,04:55:43,-0.001,0.0,0.0,0.0
14/01/2023,04:56:43,-0.000,0.0,0.0,0.0
14/01/2023,04:57:43,-0.000,0.0,0.0,0.0
14/01/2023,04:58:43,-0.000,0.0,0.0,0.0
14/01/2023,04:59:43,-0.000,0.0,0.0,0.0
14/01/2023,05:00:43,-0.001,0.0,0.0,0.0
14/01/2023,05:01:43,-0.000,0.0,0.0,0.0
14/01/2023,05:02:44,-0.000,0.0,0.0,0.0
14/01/2023,05:03:43,-0.001,0.0,0.0,0.0
14/01/2023,05:04:43,-0.000,0.0,0.0,0.0
14/01/2023,05:05:44,-0.000,0.0,0.0,0.0
14/01/2023,05:06:43,-0.000,0.0,0.0,0.0
14/01/2023,05:07:43,-0.001,0.0,0.0,0.0
14/01/2023,05:08:44,-0.000,0.0,0.0,0.0
14/01/2023,05:09:43,-0.000,0.0,0.0,0.0
14/01/2023,05:10:44,-0.000,0.0,0.0,0.0
14/01/2023,05:11:43,-0.001,0.0,0.0,0.0
14/01/2023,05:12:43,-0.001,0.0,0.0,0.0
14/01/2023,05:13:44,-0.001,0.0,0.0,0.0
14/01/2023,05:14:43,-0.000,0.0,0.0,0.0
14/01/2023,05:15:43,-0.000,0.0,0.0,0.0
14/01/2023,05:16:44,-0.000,0.0,0.0,0.0
14/01/2023,05:17:43,0.000,0.0,0.0,0.0
14/01/2023,05:18:44,-0.000,0.0,0.0,0.0
14/01/2023,05:19:43,-0.000,0.0,0.0,0.0
14/01/2023,05:20:43,-0.001,0.0,0.0,0.0
14/01/2023,05:21:43,-0.001,0.0,0.0,0.0
14/01/2023,05:22:43,-0.001,0.0,0.0,0.0
14/01/2023,05:23:43,-0.000,0.0,0.0,0.0
14/01/2023,05:24:44,0.000,0.0,0.0,0.0
14/01/2023,05:25:44,-0.000,0.0,0.0,0.0
14/01/2023,05:26:43,-0.001,0.0,0.0,0.0
14/01/2023,05:27:43,-0.001,0.0,0.0,0.0
14/01/2023,05:28:44,-0.000,0.0,0.0,0.0
14/01/2023,05:29:43,-0.001,0.0,0.0,0.0
14/01/2023,05:30:44,-0.001,0.0,0.0,0.0
14/01/2023,05:31:43,-0.000,0.0,0.0,0.0
14/01/2023,05:32:43,-0.000,0.0,0.0,0.0
14/01/2023,05:33:43,0.000,0.0,0.0,0.0
14/01/2023,05:34:43,-0.000,0.0,0.0,0.0
14/01/2023,05:35:43,-0.000,0.0,0.0,0.0
14/01/2023,05:36:43,-0.000,0.0,0.0,0.0
14/01/2023,05:37:43,-0.001,0.0,0.0,0.0
14/01/2023,05:38:43,-0.000,0.0,0.0,0.0
14/01/2023,05:39:43,-0.000,0.0,0.0,0.0
14/01/2023,05:40:44,-0.000,0.0,0.0,0.0
14/01/2023,05:41:43,-0.000,0.0,0.0,0.0
14/01/2023,05:42:43,-0.001,0.0,0.0,0.0
14/01/2023,05:43:44,-0.001,0.0,0.0,0.0
14/01/2023,05:44:44,-0.000,0.0,0.0,0.0
14/01/2023,05:45:44,-0.000,0.0,0.0,0.0
14/01/2023,05:46:44,-0.001,0.0,0.0,0.0
14/01/2023,05:47:43,-0.000,0.0,0.0,0.0
14/01/2023,05:48:43,-0.002,0.0,0.0,0.0
14/01/2023,05:49:44,-0.002,0.0,0.0,0.0
14/01/2023,05:50:43,-0.000,0.0,0.0,0.0
14/01/2023,05:51:44,-0.000,0.0,0.0,0.0
14/01/2023,05:52:43,-0.001,0.0,0.0,0.0
14/01/2023,05:53:43,-0.000,0.0,0.0,0.0
14/01/2023,05:54:43,-0.000,0.0,0.0,0.0
14/01/2023,05:55:43,-0.001,0.0,0.0,0.0
14/01/2023,05:56:43,-0.000,0.0,0.0,0.0
14/01/2023,05:57:43,0.000,0.0,0.0,0.0
14/01/2023,05:58:43,-0.001,0.0,0.0,0.0
14/01/2023,05:59:43,-0.001,0.0,0.0,0.0
14/01/2023,06:00:43,-0.001,0.0,0.0,0.0
14/01/2023,06:01:43,-0.000,0.0,0.0,0.0
14/01/2023,06:02:43,0.001,0.0,0.0,0.0
14/01/2023,06:03:43,-0.001,0.0,0.0,0.0
14/01/2023,06:04:43,0.000,0.0,0.0,0.0
14/01/2023,06:05:43,-0.000,0.0,0.0,0.0
14/01/2023,06:06:44,-0.002,0.0,0.0,0.0
14/01/2023,06:07:43,-0.000,0.0,0.0,0.0
14/01/2023,06:08:47,-0.000,0.0,0.0,0.0
14/01/2023,06:09:44,-0.001,0.0,0.0,0.0
14/01/2023,06:10:43,0.000,0.0,0.0,0.0
14/01/2023,06:11:44,-0.001,0.0,0.0,0.0
14/01/2023,06:12:43,-0.001,0.0,0.0,0.0
14/01/2023,06:13:44,-0.000,0.0,0.0,0.0
14/01/2023,06:14:43,0.001,0.0,0.0,0.0
14/01/2023,06:15:43,-0.001,0.0,0.0,0.0
14/01/2023,06:16:44,-0.000,0.0,0.0,0.0
14/01/2023,06:17:43,-0.000,0.0,0.0,0.0
14/01/2023,06:18:43,-0.001,0.0,0.0,0.0
14/01/2023,06:19:44,-0.001,0.0,0.0,0.0
14/01/2023,06:20:43,-0.001,0.0,0.0,0.0
14/01/2023,06:21:44,-0.001,0.0,0.0,0.0
14/01/2023,06:22:44,-0.002,0.0,0.0,0.0
14/01/2023,06:23:44,0.000,0.0,0.0,0.0
14/01/2023,06:24:44,-0.001,0.0,0.0,0.0
14/01/2023,06:25:43,-0.001,0.0,0.0,0.0
14/01/2023,06:26:43,-0.001,0.0,0.0,0.0
14/01/2023,06:27:44,-0.001,0.0,0.0,0.0
14/01/2023,06:28:43,-0.001,0.0,0.0,0.0
14/01/2023,06:29:44,0.000,0.0,0.0,0.0
14/01/2023,06:30:43,-0.001,0.0,0.0,0.0
14/01/2023,06:31:43,0.001,0.0,0.0,0.0
14/01/2023,06:32:44,0.001,0.0,0.0,0.0
14/01/2023,06:33:43,-0.002,0.0,0.0,0.0
14/01/2023,06:34:44,-0.001,0.0,0.0,0.0
14/01/2023,06:35:43,-0.001,0.0,0.0,0.0
14/01/2023,06:36:44,0.000,0.0,0.0,0.0
14/01/2023,06:37:43,-0.001,0.0,0.0,0.0
14/01/2023,06:38:43,-0.000,0.0,0.0,0.0
14/01/2023,06:39:44,-0.000,0.0,0.0,0.0
14/01/2023,06:40:43,-0.001,0.0,0.0,0.0
14/01/2023,06:41:43,0.000,0.0,0.0,0.0
14/01/2023,06:42:44,-0.002,0.0,0.0,0.0
14/01/2023,06:43:43,-0.001,0.0,0.0,0.0
14/01/2023,06:44:43,-0.001,0.0,0.0,0.0
14/01/2023,06:45:44,0.000,0.0,0.0,0.0
14/01/2023,06:46:44,-0.001,0.0,0.0,0.0
14/01/2023,06:47:43,-0.000,0.0,0.0,0.0
14/01/2023,06:48:44,-0.001,0.0,0.0,0.0
14/01/2023,06:49:43,-0.001,0.0,0.0,0.0
14/01/2023,06:50:44,-0.000,0.0,0.0,0.0
14/01/2023,06:51:43,-0.000,0.0,0.0,0.0
14/01/2023,06:52:44,0.000,0.0,0.0,0.0
14/01/2023,06:53:43,-0.001,0.0,0.0,0.0
14/01/2023,06:54:43,-0.001,0.0,0.0,0.0
14/01/2023,06:55:43,-0.000,0.0,0.0,0.0
14/01/2023,06:56:43,0.000,0.0,0.0,0.0
14/01/2023,06:57:44,-0.001,0.0,0.0,0.0
14/01/2023,06:58:43,-0.000,0.0,0.0,0.0
14/01/2023,06:59:43,0.000,0.0,0.0,0.0
14/01/2023,07:00:44,-0.001,0.0,0.0,0.0
14/01/2023,07:01:43,0.000,0.0,0.0,0.0
14/01/2023,07:02:43,-0.002,0.0,0.0,0.0
14/01/2023,07:03:44,-0.002,0.0,0.0,0.0
14/01/2023,07:04:43,-0.001,0.0,0.0,0.0
14/01/2023,07:05:43,-0.000,0.0,0.0,0.0
14/01/2023,07:06:44,0.000,0.0,0.0,0.0
14/01/2023,07:07:43,-0.001,0.0,0.0,0.0
14/01/2023,07:08:43,-0.001,0.0,0.0,0.0
14/01/2023,07:09:43,-0.001,0.0,0.0,0.0
14/01/2023,07:10:43,-0.001,0.0,0.0,0.0
14/01/2023,07:11:44,-0.001,0.0,0.0,0.0
14/01/2023,07:12:44,-0.001,0.0,0.0,0.0
14/01/2023,07:13:43,-0.001,0.0,0.0,0.0
14/01/2023,07:14:44,-0.001,0.0,0.0,0.0
14/01/2023,07:15:43,0.000,0.0,0.0,0.0
14/01/2023,07:16:43,-0.001,0.0,0.0,0.0
14/01/2023,07:17:45,-0.000,0.0,0.0,0.0
14/01/2023,07:18:44,-0.001,0.0,0.0,0.0
14/01/2023,07:19:43,-0.001,0.0,0.0,0.0
14/01/2023,07:20:44,-0.001,0.0,0.0,0.0
14/01/2023,07:21:43,-0.001,0.0,0.0,0.0
14/01/2023,07:22:43,0.000,0.0,0.0,0.0
14/01/2023,07:23:44,0.000,0.0,0.0,0.0
14/01/2023,07:24:43,0.000,0.0,0.0,0.0
14/01/2023,07:25:44,0.000,0.0,0.0,0.0
14/01/2023,07:26:43,-0.001,0.0,0.0,0.0
14/01/2023,07:27:43,-0.001,0.0,0.0,0.0
14/01/2023,07:28:44,-0.001,0.0,0.0,0.0
14/01/2023,07:29:44,-0.001,0.0,0.0,0.0
14/01/2023,07:30:44,-0.001,0.0,0.0,0.0
14/01/2023,07:31:43,-0.001,0.0,0.0,0.0
14/01/2023,07:32:44,-0.001,0.0,0.0,0.0
14/01/2023,07:33:43,-0.002,0.0,0.0,0.0
14/01/2023,07:34:43,-0.001,0.0,0.0,0.0
14/01/2023,07:35:43,-0.001,0.0,0.0,0.0
14/01/2023,07:36:44,-0.001,0.0,0.0,0.0
14/01/2023,07:37:43,-0.002,0.0,0.0,0.0
14/01/2023,07:38:43,-0.001,0.0,0.0,0.0
14/01/2023,07:39:44,-0.001,0.0,0.0,0.0
14/01/2023,07:40:43,-0.001,0.0,0.0,0.0
14/01/2023,07:41:44,-0.001,0.0,0.0,0.0
14/01/2023,07:42:44,-0.001,0.0,0.0,0.0
14/01/2023,07:43:44,-0.000,0.0,0.0,0.0
14/01/2023,07:44:44,-0.001,0.0,0.0,0.0
14/01/2023,07:45:43,-0.000,0.0,0.0,0.0
14/01/2023,07:46:43,0.000,0.0,0.0,0.0
14/01/2023,07:47:44,-0.000,0.0,0.0,0.0
14/01/2023,07:48:43,-0.001,0.0,0.0,0.0
14/01/2023,07:49:43,-0.001,0.0,0.0,0.0
14/01/2023,07:50:44,-0.001,0.0,0.0,0.0
14/01/2023,07:51:44,-0.000,0.0,0.0,0.0
14/01/2023,07:52:44,-0.000,0.0,0.0,0.0
14/01/2023,07:53:44,0.000,0.0,0.0,0.0
14/01/2023,07:54:44,-0.002,0.0,0.0,0.0
14/01/2023,07:55:44,-0.001,0.0,0.0,0.0
14/01/2023,07:56:44,-0.000,0.0,0.0,0.0
14/01/2023,07:57:43,0.000,0.0,0.0,0.0
14/01/2023,07:58:44,-0.000,0.0,0.0,0.0
14/01/2023,07:59:44,-0.001,0.0,0.0,0.0
14/01/2023,08:00:43,0.001,0.0,0.0,0.0
14/01/2023,08:01:43,-0.000,0.0,0.0,0.0
14/01/2023,08:02:44,-0.001,0.0,0.0,0.0
14/01/2023,08:03:43,-0.001,0.0,0.0,0.0
14/01/2023,08:04:44,-0.001,0.0,0.0,0.0
14/01/2023,08:05:43,-0.000,0.0,0.0,0.0
14/01/2023,08:06:43,-0.001,0.0,0.0,0.0
14/01/2023,08:07:43,-0.001,0.0,0.0,0.0
14/01/2023,08:08:43,0.000,0.0,0.0,0.0
14/01/2023,08:09:44,0.000,0.0,0.0,0.0
14/01/2023,08:10:43,0.001,0.0,0.0,0.0
14/01/2023,08:11:43,0.000,0.0,0.0,0.0
14/01/2023,08:12:44,0.001,0.0,0.0,0.0
14/01/2023,08:13:43,0.000,0.0,0.0,0.0
14/01/2023,08:14:44,0.000,0.0,0.0,0.0
14/01/2023,08:15:43,0.000,0.0,0.0,0.0
14/01/2023,08:16:43,-0.001,0.0,0.0,0.0
14/01/2023,08:17:44,0.001,0.0,0.0,0.0
14/01/2023,08:18:43,0.001,0.0,0.0,0.0
14/01/2023,08:19:43,0.001,0.0,0.0,0.0
14/01/2023,08:20:44,0.001,0.0,0.0,0.0
14/01/2023,08:21:43,0.001,0.0,0.0,0.0
14/01/2023,08:22:43,0.001,0.0,0.0,0.0
14/01/2023,08:23:44,0.001,0.0,0.0,0.0
14/01/2023,08:24:43,0.002,0.0,0.0,0.0
14/01/2023,08:25:43,0.002,0.0,0.0,0.0
14/01/2023,08:26:43,0.003,0.0,0.0,0.0
14/01/2023,08:27:43,0.002,0.0,0.0,0.0
14/01/2023,08:28:44,0.003,0.0,0.0,0.0
14/01/2023,08:29:43,0.002,0.0,0.0,0.0
14/01/2023,08:30:44,0.002,0.0,0.0,0.0
14/01/2023,08:31:44,0.003,0.0,0.0,0.0
14/01/2023,08:32:43,0.003,0.0,0.0,0.0
14/01/2023,08:33:44,0.001,0.0,0.0,0.0
14/01/2023,08:34:44,0.001,0.0,0.0,0.0
14/01/2023,08:35:44,0.002,0.0,0.0,0.0
14/01/2023,08:36:43,0.001,0.0,0.0,0.0
14/01/2023,08:37:44,0.003,0.0,0.0,0.0
14/01/2023,08:38:44,0.003,0.0,0.0,0.0
14/01/2023,08:39:44,0.002,0.0,0.0,0.0
14/01/2023,08:40:43,0.003,0.0,0.0,0.0
14/01/2023,08:41:43,0.004,0.0,0.0,0.0
14/01/2023,08:42:43,0.002,0.0,0.0,0.0
14/01/2023,08:43:44,0.003,0.0,0.0,0.0
14/01/2023,08:44:43,0.003,0.0,0.0,0.0
14/01/2023,08:45:44,0.003,0.0,0.0,0.0
14/01/2023,08:46:43,0.004,0.0,0.0,0.0
14/01/2023,08:47:43,0.004,0.0,0.0,0.0
14/01/2023,08:48:44,0.004,0.0,0.0,0.0
14/01/2023,08:49:44,0.005,0.0,0.0,0.0
14/01/2023,08:50:44,0.007,0.0,0.0,0.0
14/01/2023,08:51:44,0.006,0.0,0.0,0.0
14/01/2023,08:52:44,0.007,0.0,0.0,0.0
14/01/2023,08:53:44,0.007,0.0,0.0,0.0
14/01/2023,08:54:43,0.007,0.0,0.0,0.0
14/01/2023,08:55:44,0.008,0.0,0.001,0.001
14/01/2023,08:56:44,0.007,0.0,0.001,0.0
14/01/2023,08:57:43,0.008,0.0,0.001,0.0
14/01/2023,08:58:44,0.008,0.0,0.001,0.0
14/01/2023,08:59:43,0.009,0.0,0.001,0.0
14/01/2023,09:00:43,0.011,0.0,0.001,0.0
14/01/2023,09:01:44,0.011,0.0,0.001,0.0
14/01/2023,09:02:44,0.011,0.0,0.002,0.001
14/01/2023,09:03:44,0.011,0.0,0.002,0.0
14/01/2023,09:04:44,0.010,0.0,0.002,0.0
14/01/2023,09:05:44,0.010,0.0,0.002,0.0
14/01/2023,09:06:44,0.011,0.0,0.002,0.0
14/01/2023,09:07:43,0.012,0.0,0.002,0.0
14/01/2023,09:08:43,0.011,0.0,0.003,0.001
14/01/2023,09:09:44,0.010,0.0,0.003,0.0
14/01/2023,09:10:44,0.015,0.0,0.003,0.0
14/01/2023,09:11:44,0.014,0.0,0.003,0.0
14/01/2023,09:12:44,0.014,0.0,0.004,0.001
14/01/2023,09:13:44,0.012,0.0,0.004,0.0
14/01/2023,09:14:43,0.015,0.0,0.004,0.0
14/01/2023,09:15:44,0.015,0.0,0.004,0.0
14/01/2023,09:16:44,0.016,0.0,0.004,0.0
14/01/2023,09:17:43,0.016,0.0,0.005,0.001
14/01/2023,09:18:43,0.017,0.0,0.005,0.0
14/01/2023,09:19:44,0.017,0.0,0.005,0.0
14/01/2023,09:20:44,0.017,0.0,0.006,0.001
14/01/2023,09:21:44,0.018,0.0,0.006,0.0
14/01/2023,09:22:44,0.017,0.0,0.006,0.0
14/01/2023,09:23:44,0.018,0.0,0.006,0.0
14/01/2023,09:24:43,0.019,0.0,0.007,0.001
14/01/2023,09:25:44,0.019,0.0,0.007,0.0
14/01/2023,09:26:43,0.015,0.0,0.007,0.0
14/01/2023,09:27:44,0.015,0.0,0.008,0.001
14/01/2023,09:28:43,0.018,0.0,0.008,0.0
14/01/2023,09:29:44,0.017,0.0,0.008,0.0
14/01/2023,09:30:44,0.018,0.0,0.008,0.0
14/01/2023,09:31:44,0.018,0.0,0.009,0.001
14/01/2023,09:32:43,0.017,0.0,0.009,0.0
14/01/2023,09:33:44,0.017,0.0,0.009,0.0
14/01/2023,09:34:43,0.019,0.0,0.01,0.001
14/01/2023,09:35:44,0.020,0.0,0.01,0.0
14/01/2023,09:36:44,0.021,0.0,0.01,0.0
14/01/2023,09:37:45,0.019,0.0,0.011,0.001
14/01/2023,09:38:43,0.020,0.0,0.011,0.0
14/01/2023,09:39:44,0.017,0.0,0.011,0.0
14/01/2023,09:40:44,0.017,0.0,0.012,0.001
14/01/2023,09:41:44,0.014,0.0,0.012,0.0
14/01/2023,09:42:44,0.011,0.0,0.012,0.0
14/01/2023,09:43:43,0.011,0.0,0.012,0.0
14/01/2023,09:44:44,0.013,0.0,0.012,0.0
14/01/2023,09:45:44,0.013,0.0,0.013,0.001
14/01/2023,09:46:44,0.013,0.0,0.013,0.0
14/01/2023,09:47:44,0.014,0.0,0.013,0.0
14/01/2023,09:48:44,0.015,0.0,0.013,0.0
14/01/2023,09:49:44,0.016,0.0,0.014,0.001
14/01/2023,09:50:44,0.018,0.0,0.014,0.0
14/01/2023,09:51:44,0.019,0.0,0.014,0.0
14/01/2023,09:52:44,0.020,0.0,0.014,0.0
14/01/2023,09:53:44,0.021,0.0,0.015,0.001
14/01/2023,09:54:44,0.025,0.0,0.015,0.0
14/01/2023,09:55:43,0.028,0.0,0.016,0.001
14/01/2023,09:56:43,0.023,0.0,0.016,0.0
14/01/2023,09:57:44,0.023,0.0,0.016,0.0
14/01/2023,09:58:43,0.019,0.0,0.017,0.001
14/01/2023,09:59:44,0.018,0.0,0.017,0.0
14/01/2023,10:00:43,0.015,0.0,0.017,0.0
14/01/2023,10:01:44,0.015,0.0,0.018,0.001
14/01/2023,10:02:44,0.014,0.0,0.018,0.0
14/01/2023,10:03:43,0.017,0.0,0.018,0.0
14/01/2023,10:04:43,0.022,0.0,0.018,0.0
14/01/2023,10:05:44,0.025,0.0,0.019,0.001
14/01/2023,10:06:44,0.032,0.0,0.019,0.0
14/01/2023,10:07:43,0.033,0.0,0.02,0.001
14/01/2023,10:08:44,0.031,0.0,0.02,0.0
14/01/2023,10:09:43,0.031,0.0,0.021,0.001
14/01/2023,10:10:43,0.030,0.0,0.021,0.0
14/01/2023,10:11:44,0.033,0.0,0.022,0.001
14/01/2023,10:12:44,0.033,0.0,0.023,0.001
14/01/2023,10:13:44,0.035,0.0,0.023,0.0
14/01/2023,10:14:44,0.036,0.0,0.024,0.001
14/01/2023,10:15:43,0.036,0.0,0.024,0.0
14/01/2023,10:16:44,0.039,0.0,0.025,0.001
14/01/2023,10:17:45,0.040,0.0,0.026,0.001
14/01/2023,10:18:44,0.041,0.0,0.026,0.0